Location: Narrabri
(30.3170°S, 149.7830°E)
Time: 03:57:11
(UTC+11:00)

Tiangong 2 - Pass Details

Date: 11 October 2017
Orbit: 386 x 390 km, 42.8° (Epoch: 16 December)

Event Time Altitude Azimuth Distance (km) Brightness Sun altitude
Rises 20:28:35 0° 225° (SW) 2,294 6.2 -17.6°
Reaches altitude 10° 20:31:41 10° 193° (SSW) 1,434 4.4 -18.2°
Maximum altitude 20:33:07 12° 167° (SSE) 1,301 3.8 -18.5°
Enters shadow 20:33:48 12° 153° (SSE) 1,332 3.7 -18.7°
